Location: Lachepaillet
(43.4918°N, 1.4874°W)
Time: 22:48:02
(UTC+00:00)

BREEZE-M DEB - Pass Details

Date: 15 May 2026
Orbit: 819 x 34897 km, 45.0° (Epoch: 6 June)

Event Time Altitude Azimuth Distance (km) Brightness Sun altitude
Rises 22:29:23 0° 255° (WSW) 3,380 7.0 -23.9°
Reaches altitude 10° 22:31:20 10° 256° (WSW) 2,411 6.2 -24.1°
Maximum altitude 22:35:45 89° 346° (NNW) 1,052 4.1 -24.4°
Drops below altitude 10° 22:46:16 10° 78° (ENE) 5,499 7.8 -25.1°
Sets 22:54:11 0° 79° (E) 8,852 8.9 -25.5°
